Date,TemperatureHighF,TemperatureAvgF,TemperatureLowF,DewpointHighF,DewpointAvgF,DewpointLowF,HumidityHigh,HumidityAvg,HumidityLow,PressureMaxIn,PressureMinIn,WindSpeedMaxMPH,WindSpeedAvgMPH,GustSpeedMaxMPH,PrecipitationSumIn
2013-7-10,78,73,62,55,52,50,75,48,38,0.00,40.00,11,6,20,0.00
2013-7-11,84,71,58,61,56,52,86,62,37,0.00,40.00,15,8,24,0.00
2013-7-12,81,74,70,72,66,61,92,74,57,0.00,40.00,12,6,22,0.01
2013-7-13,87,74,63,72,65,59,92,74,38,0.00,40.00,8,3,12,0.01
2013-7-14,81,72,66,70,59,52,91,66,39,0.00,40.00,12,7,18,0.00
2013-7-15,85,72,60,66,59,52,83,65,50,0.00,40.00,14,5,23,0.00
2013-7-16,87,75,64,66,64,57,90,69,45,0.00,40.00,20,9,29,0.00
2013-7-17,82,70,62,63,56,50,92,63,33,0.00,40.00,7,3,9,0.00
2013-7-18,82,70,60,68,62,57,94,78,52,0.00,40.00,10,5,18,0.02
2013-7-19,78,67,59,66,55,45,92,67,33,0.00,40.00,19,10,27,0.01
2013-7-22,71,66,54,54,50,48,87,58,46,0.00,40.00,18,13,27,0.01
2013-7-23,72,60,48,52,49,46,94,71,43,0.00,40.00,6,4,11,0.00
2013-7-24,74,62,52,61,54,50,93,77,49,0.00,40.00,15,6,27,0.00
2013-7-25,72,60,52,59,54,50,94,82,48,0.00,40.00,17,7,27,0.01
2013-7-26,64,57,51,54,46,39,89,68,44,0.00,40.00,19,9,27,0.01
2013-7-27,71,58,46,48,44,39,92,64,32,0.00,40.00,19,8,24,0.00
2013-7-28,76,61,45,50,45,41,92,59,29,0.00,40.00,7,3,12,0.00
2013-7-29,75,63,49,54,50,46,91,65,39,0.00,40.00,12,5,20,0.00
2013-7-30,72,65,60,61,56,52,92,75,52,0.00,40.00,16,8,21,0.00
2013-7-31,70,62,50,57,49,46,94,66,43,0.00,40.00,17,9,27,0.00